User: anonymous   Login
Location: Nebula Knoll Observatory
(43.6666°N, 71.0000°W)
Time: 03:20:36
(UTC-04:00)
Language:

SeaSat 1 - Orbit

View from above orbital plane
View from above orbital plane
View from above satellite
View from above satellite

Ground track
Ground track

The orbit data is extracted from the following two-line orbital elements,

1 10967U 78064A   17149.90005072 -.00000029 +00000-0 +31858-4 0  9994
2 10967 108.0075 261.2143 0002697 253.0977 106.9872 14.43645486043737
Epoch (UTC): 29 May 2017 21:36:04
Eccentricity: 0.0002697
inclination: 108.0075°
perigee height: 744 km
apogee height: 748 km
right ascension of ascending node: 261.2143°
argument of perigee: 253.0977°
revolutions per day: 14.43645486
mean anomaly at epoch: 106.9872°
orbit number at epoch: 4373

The dashed part of the orbit path shows where the satellite is in the earth's shadow,  

DLR